Weather reports worldwide

Advertisment
Trier-Petrisberg, Germany (10609): temperature & dewpoint: 09.08.2020 21:00:00 - 15.08.2020 21:00:00 (CEST)Trier-Petrisberg, Germany (10609): temperature 5cm & temperature -5cm: 09.08.2020 21:00:00 - 15.08.2020 21:00:00 (CEST)Trier-Petrisberg, Germany (10609): temperature -20cm & temperature -100cm: 09.08.2020 21:00:00 - 15.08.2020 21:00:00 (CEST)Trier-Petrisberg, Germany (10609): wind speed & gusts: 09.08.2020 21:00:00 - 15.08.2020 21:00:00 (CEST)Trier-Petrisberg, Germany (10609): wind direction: 09.08.2020 21:00:00 - 15.08.2020 21:00:00 (CEST)Trier-Petrisberg, Germany (10609): reduced air pressure: 09.08.2020 21:00:00 - 15.08.2020 21:00:00 (CEST)Trier-Petrisberg, Germany (10609): visibility: 09.08.2020 21:00:00 - 15.08.2020 21:00:00 (CEST)Trier-Petrisberg, Germany (10609): sunshine duration: 09.08.2020 21:00:00 - 15.08.2020 21:00:00 (CEST)Trier-Petrisberg, Germany (10609): precipitation: 09.08.2020 21:00:00 - 15.08.2020 21:00:00 (CEST)
Date & Time tt [°C] td [°C] tt 5cm [°C] tt -5cm [°C] tt -20cm [°C] tt -100cm [°C] ff [km/h] ff [kn] fx [km/h] fx [kn] dd ppp [hPa] vv [km] sd [min] rr [mm]
15.08.2020 21:00:00 24,1 16,3 24,1 28,8 27,7 23,2 13 7 19 10 N 1012,5 64 12 0,0
15.08.2020 20:00:00 25,2 16,0 25,1 30,5 27,6 23,3 8 4 21 11 E 1012,0 63 0 0,0
15.08.2020 19:00:00 27,6 15,2 28,5 32,6 27,4 23,3 7 4 14 8 E 1011,7 60 20 0,0
15.08.2020 18:00:00 28,2 14,1 32,8 33,1 27,0 23,3 8 5 15 8 N 1011,7 54 52 0,0
15.08.2020 17:00:00 27,7 14,8 30,2 31,3 26,7 23,3 5 3 12 6 S 1012,2 72 5 0,0
15.08.2020 16:00:00 27,1 15,6 28,6 32,2 26,2 23,3 8 4 14 7 ESE 1012,7 54 7 0,0
15.08.2020 15:00:00 27,3 14,7 31,1 33,1 25,6 23,3 5 3 16 9 S 1013,2 75 50 0,0
15.08.2020 14:00:00 26,5 14,4 30,5 31,0 25,0 23,4 5 3 16 9 NNE 1013,7 55 51 0,0
15.08.2020 13:00:00 24,9 15,5 29,2 29,1 24,5 23,4 7 4 16 9 ENE 1014,2 60 27 0,0
15.08.2020 12:00:00 23,4 16,0 26,4 27,7 24,1 23,4 3 2 11 6 W 1014,6 56 34 0,0
15.08.2020 11:00:00 23,4 16,5 26,0 25,3 23,9 23,4 4 2 10 5 SSW 1014,7 41 44 0,0
15.08.2020 10:00:00 20,3 17,4 21,0 23,0 23,9 23,4 3 2 7 4 NW 1015,3 41 0 0,0
15.08.2020 09:00:00 19,1 17,8 19,8 22,1 24,0 23,4 3 2 8 4 ENE 1015,3 20 0 0,0
15.08.2020 08:00:00 18,4 17,7 18,6 21,7 24,2 23,4 4 2 7 4 SW 1014,9 7 0 0,0
15.08.2020 07:00:00 18,2 17,6 18,3 21,6 24,4 23,4 4 2 5 3 SSW 1014,6 7 0 0,0
15.08.2020 06:00:00 18,0 17,3 17,9 21,9 24,7 23,4 4 2 5 3 SE 1014,3 14 0 0,0
15.08.2020 05:00:00 18,5 17,7 18,4 22,2 24,9 23,4 4 2 5 3 SW 1014,3 19 0 0,0
15.08.2020 04:00:00 18,7 17,5 18,4 22,6 25,1 23,4 4 2 7 4 S 1014,5 38 0 0,1
15.08.2020 03:00:00 18,9 17,6 18,8 22,9 25,4 23,4 4 2 11 6 SW 1014,7 27 0 0,2
15.08.2020 02:00:00 19,0 17,7 18,7 23,3 25,7 23,4 9 5 22 12 SSW 1014,9 22 0 0,2
15.08.2020 01:00:00 19,8 17,0 19,0 23,9 26,0 23,4 14 8 23 12 SSW 1014,9 16 0 0,5
15.08.2020 00:00:00 21,5 16,3 20,4 24,5 26,3 23,4 9 5 15 8 SW 1014,5 54 0 0,0
14.08.2020 23:00:00 21,9 16,1 20,5 25,5 26,5 23,5 9 5 14 8 S 1014,4 64 0 0,0
14.08.2020 22:00:00 22,7 16,1 21,6 26,8 26,6 23,5 6 3 21 11 ESE 1013,9 59 0 0,0
14.08.2020 21:00:00 24,0 16,0 23,1 28,3 26,6 23,5 13 7 19 10 SE 1013,0 59 30 0,0
14.08.2020 20:00:00 25,8 15,6 26,5 30,0 26,4 23,5 11 6 23 13 ESE 1012,6 57 46 0,0
14.08.2020 19:00:00 27,4 13,7 30,5 30,2 26,2 23,6 10 6 19 10 S 1012,4 58 23 0,0
14.08.2020 18:00:00 27,8 14,4 30,2 30,3 25,8 23,6 11 6 22 12 SSW 1012,4 72 39 0,0
14.08.2020 17:00:00 26,3 14,3 31,0 30,0 25,5 23,6 8 4 23 12 SSW 1012,8 65 56 0,0
14.08.2020 16:00:00 26,6 15,4 29,6 29,1 25,0 23,6 10 6 23 13 SSW 1013,0 71 16 0,0
14.08.2020 15:00:00 25,4 15,4 28,4 29,6 24,5 23,7 13 7 25 14 WSW 1013,4 75 27 0,0
14.08.2020 14:00:00 25,7 15,0 32,0 27,7 24,1 23,7 17 9 32 17 SW 1013,8 65 41 0,0
14.08.2020 13:00:00 24,9 16,5 29,2 24,8 23,9 23,7 14 8 24 13 SW 1014,1 68 13 0,0
14.08.2020 12:00:00 22,2 16,4 23,2 24,1 23,8 23,7 16 8 26 14 SW 1014,8 72 0 0,0
14.08.2020 11:00:00 22,0 16,4 23,6 23,2 23,7 23,7 17 9 26 14 S 1014,8 57 0 0,0
14.08.2020 10:00:00 21,5 15,4 22,4 22,3 23,8 23,8 14 8 22 12 S 1014,7 49 4 0,0
14.08.2020 09:00:00 19,2 15,0 19,5 21,4 23,9 23,8 5 3 8 4 SSW 1014,7 40 0 0,0
14.08.2020 08:00:00 19,0 14,7 19,2 21,0 24,1 23,8 3 1 6 4 WSW 1014,4 44 0 0,0
14.08.2020 07:00:00 18,2 14,4 17,7 20,9 24,3 23,8 5 3 10 5 S 1014,1 43 0 0,0
14.08.2020 06:00:00 17,9 15,1 17,4 21,2 24,6 23,8 6 3 7 4 SW 1013,7 41 0 0,0
14.08.2020 05:00:00 18,0 15,1 17,6 21,2 24,9 23,8 3 1 7 4 WSW 1013,7 39 0 0,0
14.08.2020 04:00:00 18,2 14,4 16,4 21,5 25,2 23,8 3 1 6 3 WSW 1013,7 45 0 0,0
14.08.2020 03:00:00 18,6 14,4 17,1 22,0 25,5 23,8 5 3 10 5 SSE 1013,6 39 0 0,0
14.08.2020 02:00:00 19,9 14,6 17,7 22,6 25,9 23,8 4 2 8 5 SSW 1013,7 41 0 0,0
14.08.2020 01:00:00 20,9 14,7 18,7 23,2 26,2 23,9 6 4 10 6 SW 1013,8 52 0 0,0
14.08.2020 00:00:00 20,9 14,4 18,7 24,0 26,6 23,9 3 2 9 5 SSE 1013,5 58 0 0,0
13.08.2020 23:00:00 22,7 13,7 20,4 25,0 26,9 23,9 4 2 10 5 SSE 1012,6 51 0 0,0
13.08.2020 22:00:00 24,6 13,5 21,8 26,2 27,2 23,9 8 5 13 7 SW 1012,4 53 0 0,0
13.08.2020 21:00:00 26,4 12,7 23,2 27,9 27,3 23,9 6 3 27 15 SSW 1011,9 66 44 0,0
13.08.2020 20:00:00 29,1 13,1 28,9 29,5 27,2 24,0 16 9 29 16 SW 1011,5 56 37 0,0
13.08.2020 19:00:00 30,1 13,1 31,8 30,3 27,0 24,0 7 4 26 14 SW 1011,4 55 35 0,0
13.08.2020 18:00:00 29,4 14,2 30,5 30,9 26,7 24,0 11 6 30 16 SSW 1011,7 53 23 0,0
13.08.2020 17:00:00 29,3 14,9 30,8 31,6 26,3 24,0 19 11 37 20 S 1012,2 62 45 0,0
13.08.2020 16:00:00 30,8 16,0 34,0 30,6 25,8 24,1 22 12 35 19 SSW 1012,1 36 46 0,0
13.08.2020 15:00:00 29,2 16,8 32,8 29,0 25,5 24,1 17 9 28 15 SW 1012,5 51 32 0,0
13.08.2020 14:00:00 26,2 17,8 27,6 26,9 25,3 24,1 13 7 21 12 S 1013,1 42 0 0,0
13.08.2020 13:00:00 24,6 17,7 25,8 26,7 25,1 24,1 7 4 15 8 SSW 1013,2 40 7 0,0
13.08.2020 12:00:00 23,5 17,3 24,6 25,4 24,9 24,1 6 3 11 6 SW 1013,0 34 0 0,0
13.08.2020 11:00:00 22,9 17,1 24,5 24,9 24,8 24,2 4 2 8 4 SW 1013,1 35 6 0,0
13.08.2020 10:00:00 21,1 17,7 22,0 23,7 24,8 24,2 4 2 7 4 SSW 1013,2 29 12 0,0
13.08.2020 09:00:00 19,8 17,9 20,3 22,4 24,9 24,2 3 2 9 5 SW 1013,0 20 0 0,0
13.08.2020 08:00:00 18,7 17,6 18,5 21,7 25,2 24,2 7 4 12 7 NNE 1012,8 15 0 0,0
13.08.2020 07:00:00 17,9 17,2 17,3 21,7 25,5 24,2 3 2 9 5 NNE 1012,6 10 0 0,0
13.08.2020 06:00:00 18,1 17,3 17,7 22,1 25,7 24,2 7 4 12 7 NNE 1012,5 11 0 0,0
13.08.2020 05:00:00 18,2 17,2 18,0 22,3 26,1 24,2 3 2 13 7 E 1012,4 21 0 0,0
13.08.2020 04:00:00 18,2 17,2 17,8 22,6 26,4 24,2 6 3 18 10 NE 1012,4 21 0 0,0
13.08.2020 03:00:00 18,7 17,9 18,3 23,1 26,8 24,2 11 6 16 9 NNE 1012,4 14 0 0,0
13.08.2020 02:00:00 18,9 17,6 18,4 23,7 27,1 24,2 8 4 19 10 NNE 1012,6 24 0 0,0
13.08.2020 01:00:00 19,7 18,2 19,4 24,4 27,5 24,2 11 6 17 9 N 1013,2 27 0 0,1
13.08.2020 00:00:00 20,5 17,6 19,9 24,9 27,9 24,2 10 5 16 8 NNE 1013,7 25 0 0,2
12.08.2020 23:00:00 21,3 17,7 20,9 25,3 28,4 24,2 3 2 24 13 E 1014,4 44 0 0,0
12.08.2020 22:00:00 21,2 18,1 20,7 26,2 28,8 24,2 13 7 34 18 NNE 1014,1 38 0 0,0
12.08.2020 21:00:00 21,6 18,3 21,4 27,6 29,2 24,2 23 12 33 18 N 1013,2 41 0 0,0
12.08.2020 20:00:00 22,0 19,3 22,3 29,7 29,5 24,2 17 9 29 16 N 1012,9 33 37 0,0
12.08.2020 19:00:00 24,2 20,6 25,0 30,2 29,8 24,2 10 5 35 19 ENE 1012,2 32 36 0,1
12.08.2020 18:00:00 21,8 18,7 21,2 31,3 30,0 24,2 16 8 37 20 N 1013,5 18 1 3,1
12.08.2020 17:00:00 25,5 18,3 24,0 34,5 29,7 24,2 23 12 51 28 NE 1011,9 53 6 6,0
12.08.2020 16:00:00 33,3 15,8 38,7 39,1 28,9 24,3 22 12 42 23 ENE 1011,3 36 48 0,0
12.08.2020 15:00:00 32,4 16,5 36,3 38,0 28,1 24,3 8 5 24 13 WNW 1011,9 42 53 0,0
12.08.2020 14:00:00 32,1 17,3 37,9 35,5 27,3 24,3 13 7 22 12 NNE 1012,5 43 51 0,0
12.08.2020 13:00:00 30,5 17,4 35,8 33,4 26,7 24,3 14 7 24 13 N 1013,4 43 57 0,0
12.08.2020 12:00:00 28,3 17,5 32,2 30,6 26,2 24,3 12 7 22 12 NNE 1014,0 30 58 0,0
12.08.2020 11:00:00 25,8 17,9 29,9 27,4 26,0 24,3 10 5 20 11 NNE 1014,4 30 60 0,0
12.08.2020 10:00:00 23,3 17,5 26,0 24,9 26,0 24,3 8 5 16 9 NNE 1014,9 29 60 0,0
12.08.2020 09:00:00 21,2 17,2 22,8 23,1 26,2 24,3 6 4 15 8 N 1015,0 23 60 0,0
12.08.2020 08:00:00 19,0 17,0 18,6 22,8 26,5 24,3 5 3 14 7 NE 1015,1 22 55 0,0
12.08.2020 07:00:00 18,4 16,9 17,4 22,9 26,9 24,3 7 4 13 7 N 1014,9 21 0 0,0
12.08.2020 06:00:00 18,4 16,8 17,1 23,3 27,2 24,3 8 4 16 9 NNE 1014,5 20 0 0,0
12.08.2020 05:00:00 18,6 16,7 17,7 23,8 27,6 24,3 10 5 15 8 NNE 1014,7 24 0 0,0
12.08.2020 04:00:00 19,2 16,5 17,7 24,3 28,0 24,3 4 2 10 5 NE 1015,0 30 0 0,0
12.08.2020 03:00:00 19,9 16,7 18,8 24,8 28,5 24,2 8 4 25 14 NE 1014,8 35 0 0,0
12.08.2020 02:00:00 20,5 16,6 19,4 25,5 28,9 24,2 9 5 23 12 NNE 1014,8 37 0 0,0
12.08.2020 01:00:00 20,6 17,2 19,8 26,3 29,4 24,2 11 6 26 14 N 1014,9 34 0 0,0
12.08.2020 00:00:00 20,9 17,7 20,2 27,3 29,9 24,2 15 8 29 16 N 1015,1 34 0 0,0
11.08.2020 23:00:00 21,7 18,0 21,0 28,6 30,4 24,2 13 7 35 19 N 1015,4 32 0 0,0
11.08.2020 22:00:00 22,8 18,1 21,7 30,3 30,8 24,2 22 12 44 24 NNE 1014,8 34 0 0,0
11.08.2020 21:00:00 23,5 19,3 22,2 33,2 31,0 24,2 22 12 37 20 N 1013,6 34 0 0,9
11.08.2020 20:00:00 28,4 16,5 27,5 35,8 30,9 24,2 5 3 41 22 NNE 1012,8 45 9 0,1
11.08.2020 19:00:00 33,5 14,4 35,8 37,7 30,6 24,3 12 6 22 12 SE 1011,7 48 34 0,0
11.08.2020 18:00:00 34,1 15,5 37,5 38,9 30,0 24,3 13 7 28 15 ESE 1011,7 52 54 0,0
11.08.2020 17:00:00 31,8 14,9 37,1 38,7 29,3 24,3 23 12 35 19 SE 1012,4 51 41 0,0
11.08.2020 16:00:00 32,3 15,4 36,7 38,1 28,6 24,3 16 9 36 20 ESE 1012,7 20 49 0,0
11.08.2020 15:00:00 34,0 15,5 39,7 36,2 27,8 24,3 9 5 23 12 SSW 1013,0 35 60 0,0
11.08.2020 14:00:00 31,9 16,5 37,0 33,2 27,3 24,3 10 5 21 12 N 1013,7 32 47 0,0
11.08.2020 13:00:00 29,5 16,1 33,7 30,7 27,0 24,3 11 6 18 10 NNE 1014,5 33 27 0,0
11.08.2020 12:00:00 27,4 16,4 30,5 28,5 26,8 24,3 7 4 12 6 NNE 1014,9 38 0 0,0
11.08.2020 11:00:00 25,5 16,7 27,1 27,0 26,7 24,3 8 4 10 6 NE 1015,0 34 0 0,0
11.08.2020 10:00:00 23,2 17,2 25,1 25,6 26,8 24,3 3 1 7 4 SSW 1015,0 28 0 0,0
11.08.2020 09:00:00 22,2 16,8 22,6 24,8 27,0 24,3 4 2 14 7 N 1014,6 30 3 0,0
11.08.2020 08:00:00 22,0 16,7 22,0 24,5 27,2 24,3 9 5 15 8 NNE 1014,1 32 53 0,0
11.08.2020 07:00:00 20,4 16,1 19,9 24,2 27,5 24,3 5 3 10 5 NE 1014,4 29 0 0,0
11.08.2020 06:00:00 19,6 15,5 18,2 24,6 27,9 24,3 9 5 15 8 NNE 1014,0 27 0 0,0
11.08.2020 05:00:00 20,6 16,0 18,4 25,1 28,2 24,3 5 3 16 8 NE 1013,9 33 0 0,0
11.08.2020 04:00:00 21,2 16,0 19,7 25,6 28,6 24,2 11 6 22 12 NNE 1013,7 32 0 0,0
11.08.2020 03:00:00 22,0 16,3 20,4 26,3 28,9 24,2 11 6 19 10 NNE 1013,8 35 0 0,0
11.08.2020 02:00:00 22,7 16,2 22,0 26,8 29,3 24,2 10 6 16 9 NNE 1014,0 35 0 0,0
11.08.2020 01:00:00 23,2 17,1 22,7 27,2 29,7 24,2 13 7 17 9 N 1014,0 39 0 0,0
11.08.2020 00:00:00 24,0 16,1 22,1 27,8 30,2 24,2 12 6 16 9 N 1013,8 41 0 0,0
10.08.2020 23:00:00 24,7 16,3 22,9 28,8 30,6 24,1 9 5 11 6 N 1013,2 43 0 0,0
10.08.2020 22:00:00 25,3 15,5 22,6 30,1 31,1 24,1 7 4 16 9 NNE 1013,2 43 0 0,0
10.08.2020 21:00:00 26,5 15,9 25,5 31,7 31,4 24,1 13 7 22 12 NNE 1012,5 43 0 0,0
10.08.2020 20:00:00 28,1 15,1 25,8 33,5 31,6 24,1 15 8 31 17 NE 1012,0 51 7 0,9
10.08.2020 19:00:00 29,8 14,0 30,7 35,8 31,6 24,1 11 6 31 17 ENE 1011,9 45 0 0,0
10.08.2020 18:00:00 31,4 13,7 32,2 37,8 31,4 24,1 5 3 29 15 N 1011,8 46 1 0,0
10.08.2020 17:00:00 34,9 12,7 38,2 39,4 30,9 24,1 7 4 23 13 ESE 1011,2 46 23 0,0
10.08.2020 16:00:00 34,4 13,5 38,8 40,4 30,1 24,1 6 4 20 11 NW 1011,6 42 58 0,0
10.08.2020 15:00:00 32,8 13,2 40,5 38,8 29,4 24,1 7 4 20 11 NNW 1012,3 42 60 0,0
10.08.2020 14:00:00 32,3 13,5 37,0 37,3 28,7 24,1 8 5 17 9 NNW 1012,8 36 55 0,0
10.08.2020 13:00:00 31,6 15,2 36,8 34,9 28,1 24,1 10 6 22 12 NNE 1013,4 35 60 0,0
10.08.2020 12:00:00 29,3 16,1 34,5 32,0 27,7 24,1 10 6 21 11 N 1013,7 50 60 0,0
10.08.2020 11:00:00 26,9 16,0 31,6 29,1 27,5 24,1 12 7 23 12 NNE 1014,2 40 60 0,0
10.08.2020 10:00:00 24,5 15,8 27,3 26,8 27,6 24,1 13 7 23 12 NNE 1014,5 37 34 0,0
10.08.2020 09:00:00 22,5 15,5 23,8 25,9 27,8 24,1 11 6 19 11 NNE 1014,5 41 16 0,0
10.08.2020 08:00:00 21,3 15,5 21,4 25,7 28,1 24,1 15 8 27 15 NNE 1014,5 49 0 0,0
10.08.2020 07:00:00 20,6 15,9 20,7 25,9 28,4 24,0 11 6 37 20 N 1014,6 44 0 0,0
10.08.2020 06:00:00 21,5 15,3 21,4 26,2 28,7 24,0 16 9 26 14 NNE 1014,3 51 0 0,0
10.08.2020 05:00:00 21,5 15,4 20,2 26,7 29,0 24,0 6 4 9 5 N 1014,1 46 0 0,0
10.08.2020 04:00:00 21,9 15,0 20,7 27,3 29,4 24,0 6 3 16 9 ENE 1014,8 49 0 0,0
10.08.2020 03:00:00 23,0 15,2 22,5 27,9 29,7 23,9 10 6 22 12 NNE 1015,6 48 0 0,0
10.08.2020 02:00:00 23,6 14,9 23,3 28,4 30,1 23,9 14 8 31 17 NE 1016,0 50 0 0,0
10.08.2020 01:00:00 24,1 14,9 23,7 29,0 30,5 23,9 15 8 30 16 NNE 1015,9 52 0 0,0
10.08.2020 00:00:00 23,1 15,8 23,0 29,9 30,9 23,8 17 9 27 14 N 1015,2 45 0 0,0
09.08.2020 23:00:00 23,5 16,1 23,5 30,9 31,3 23,8 5 3 31 17 NW 1015,3 44 0 0,0
09.08.2020 22:00:00 24,7 15,2 24,4 32,2 31,6 23,8 22 12 34 18 NNE 1015,1 52 0 0,0
09.08.2020 21:00:00 25,8 15,6 25,6 34,1 31,8 23,8 12 6 29 16 NNE 1014,4 53 22 0,0

tt = temperature
td = dewpoint
tt 5cm = temperature 5cm
tt -5cm = temperature -5cm
tt -20cm = temperature -20cm
tt -100cm = temperature -100cm
ff = wind speed
fx = gusts
dd = wind direction
ppp = reduced air pressure
vv = visibility
sd = sunshine duration
rr = precipitation

Next stations